Location: Unspecified
(42.3650°N, 71.1030°W)
Time: 09:27:09
(UTC+00:00)

A-11 Canister half - Visible Passes

Search period start: 19 June 2024 00:00
Search period end: 29 June 2024 00:00
Orbit: 1515 x 1685 km, 47.2° (Epoch: 18 June)

Date Brightness Start Highest point End Pass type
(mag) Time Alt. Az. Time Alt. Az. Time Alt. Az.
19 Jun 9.4 02:34:18 10° WNW 02:44:14 67° N 02:53:48 10° E visible
19 Jun 8.9 04:39:53 10° WNW 04:49:42 83° SSW 04:59:09 10° ESE visible
19 Jun 9.5 06:45:37 10° WNW 06:53:43 32° SW 07:01:35 10° S visible
20 Jun 9.4 02:11:13 10° W 02:21:11 67° N 02:30:47 10° E visible
20 Jun 8.9 04:16:51 10° WNW 04:26:43 86° SSW 04:36:11 10° ESE visible
20 Jun 9.5 06:22:30 10° WNW 06:30:49 34° SW 06:34:18 27° S visible
21 Jun 9.5 01:48:07 10° W 01:58:08 67° N 02:07:45 10° E visible
21 Jun 9.0 03:53:49 10° WNW 04:03:44 89° SSW 04:12:16 14° ESE visible
21 Jun 9.4 05:59:24 10° WNW 06:07:55 37° SW 06:10:19 32° SSW visible
22 Jun 9.5 01:25:03 10° W 01:35:04 67° N 01:44:44 10° E visible
22 Jun 9.0 03:30:46 10° WNW 03:40:43 89° NNE 03:48:57 15° ESE visible
22 Jun 9.3 05:36:18 10° WNW 05:45:00 39° SW 05:47:02 35° SSW visible
23 Jun 9.5 01:01:56 10° W 01:12:00 67° N 01:21:42 10° E visible
23 Jun 9.0 03:07:43 10° WNW 03:17:43 87° NNE 03:26:00 15° ESE visible
23 Jun 9.3 05:13:13 10° WNW 05:22:06 42° SW 05:24:06 38° SSW visible
24 Jun 9.1 02:44:40 10° WNW 02:54:41 84° NNE 03:03:16 14° ESE visible
24 Jun 9.3 04:50:08 10° WNW 04:59:10 44° SW 05:01:23 39° SSW visible
25 Jun 9.1 02:21:37 10° WNW 02:31:40 82° NNE 02:40:42 12° ESE visible
25 Jun 9.3 04:27:03 10° WNW 04:36:15 47° SW 04:38:49 39° S visible
25 Jun 10.6 06:36:47 10° WSW 06:36:57 10° WSW 06:36:57 10° WSW visible
26 Jun 9.2 01:58:34 10° WNW 02:08:38 80° NNE 02:18:15 10° ESE visible
26 Jun 9.2 04:03:59 10° WNW 04:13:19 50° SW 04:16:22 38° S visible
26 Jun 10.6 06:12:45 10° W 06:14:30 12° WSW 06:14:30 12° WSW visible
27 Jun 9.2 01:35:31 10° WNW 01:45:37 78° NNE 01:55:19 10° ESE visible
27 Jun 9.2 03:40:56 10° WNW 03:50:23 53° SW 03:54:01 37° SSE visible
27 Jun 10.5 05:49:03 10° W 05:52:10 14° WSW 05:52:10 14° WSW visible
28 Jun 9.3 01:12:27 10° WNW 01:22:34 77° NNE 01:32:19 10° ESE visible
28 Jun 9.2 03:17:52 10° WNW 03:27:25 56° SW 03:31:44 34° SSE visible
28 Jun 10.4 05:25:31 10° W 05:29:53 16° WSW 05:29:53 16° WSW visible
